sat.trackr.live / text

‹ back to catalog

HELLAS-SAT 3

NORAD 42814 · 2017-040A

PAYLOAD ACTIVE UNKNOWN

§ Identity

Operator
Country
GREC
Launch date
2017-06-28
Launch site
FRGUI
Launch vehicle
Mass (kg)
RCS (m²)

Purposes: comms

External: N2YO · Heavens-Above · Gunter

§ Orbital elements

Epoch: 2026-05-25T03:55:46.193376Z

Period
1,436.06 min
Inclination
0.0863°
Eccentricity
0.0005434
Mean motion
1.00274076 rev/d
Perigee alt
35,763.0 km
Apogee alt
35,808.9 km
Semi-major
42,164.1 km
B*
0.0000e+0
RAAN
71.8999°
Arg perigee
331.2322°
Mean anomaly
297.5673°
Rev number
3,257

§ Raw data

HELLAS-SAT 31 42814U 17040A   26145.16372909  .00000150  00000+0  00000+0 0  99902 42814   0.0863  71.8999 0005434 331.2322 297.5673  1.00274076 32576

JSON: /api/v1/satellites/42814 · /tle

For live sub-satellite position, see the globe view (requires WebGL).

§ Visibility from observer

Set your observer location to see the next 7 days of passes ≥ 10°. The values pass through the URL so the page stays shareable.

No JS? Fill the form by hand. The geolocation button needs JavaScript.